Zurück zum Katalog

CZ-6A DEB

AktivSSO
NORAD 55872·DEBRIS·🇨🇳 China

Gestartet Nov 11, 2022 von Taiyuan Satellite Launch Center

Loading…

Nächste Überflüge (nächste 24 Stunden)

TLE

AktuellSource: Space-Track

Epoche: Sep 14, 2026, 10:57 UTC

1 55872U 22151ZU  26257.45677350  .00000159  00000-0  11119-3 0  9998
2 55872  98.8394 257.9860 0041187  60.6748 299.8528 14.11408870185639

Verfolge CZ-6A DEB in Echtzeit mit AllMySat

Download on the App Store